DW0912 Weather Reports


time (UTC)temp
C
wind
direction
speed
KPH
gust
KPH
rain 1hr
cm
rain 24hr
cm
rain mn
cm
humidity
%
barometer
mb
20260507051558 13 0 0.0 0.0 0.00 0.00 0.00 80 1017.9
20260507050055 13 0 0.0 0.0 0.00 0.00 0.00 79 1017.8
20260507044600 13 0 0.0 0.0 0.00 0.00 0.00 79 1017.8
20260507043053 14 0 0.0 0.0 0.00 0.00 0.00 79 1017.6
20260507041600 14 0 0.0 0.0 0.00 0.00 0.00 79 1017.6
20260507040101 15 0 0.0 0.0 0.00 0.00 0.00 78 1017.4
20260507034559 15 0 0.0 0.0 0.00 0.00 0.00 77 1017.3
20260507033056 15 0 0.0 0.0 0.00 0.00 0.00 77 1017.2
20260507031558 15 0 0.0 0.0 0.00 0.00 0.00 76 1017.0
20260507030057 16 0 0.0 0.0 0.00 0.00 0.00 75 1016.9
20260507024555 16 0 0.0 0.0 0.00 0.00 0.00 73 1016.8
20260507023055 17 0 0.0 0.0 0.00 0.00 0.00 71 1016.7
20260507021555 18 0 0.0 0.0 0.00 0.00 0.00 68 1016.5
20260507020104 18 0 0.0 0.0 0.00 0.00 0.00 67 1016.4
20260507014606 18 0 0.0 0.0 0.00 0.00 0.00 66 1016.3
20260507013055 18 0 0.0 0.0 0.00 0.00 0.00 64 1016.3
20260507011603 19 0 0.0 0.0 0.00 0.00 0.00 61 1016.4
20260507010055 20 0 0.0 0.0 0.00 0.00 0.00 59 1016.5
20260507004553 20 0 0.0 0.0 0.00 0.00 0.00 59 1016.4
20260507003051 19 0 0.0 0.0 0.00 0.00 0.00 59 1016.5
20260507001607 20 0 0.0 0.0 0.00 0.00 0.00 60 1016.4
20260507000058 20 0 0.0 0.0 0.00 0.00 0.00 59 1016.4
20260506234554 20 0 0.0 0.0 0.00 0.00 0.00 59 1016.4
20260506233052 21 0 0.0 0.0 0.00 0.00 0.00 59 1016.3
20260506231552 21 0 0.0 0.0 0.00 0.00 0.00 60 1016.3
20260506230057 20 0 0.0 0.0 0.00 0.00 0.00 60 1016.4
20260506224554 21 0 0.0 0.0 0.00 0.00 0.00 60 1016.5
20260506223050 20 0 0.0 0.0 0.00 0.00 0.00 61 1016.7
20260506221557 21 0 0.0 0.0 0.00 0.00 0.00 59 1016.9
20260506214552 21 0 0.0 0.0 0.00 0.00 0.00 57 1017.4
20260506213102 21 0 0.0 0.0 0.00 0.00 0.00 57 1017.5
20260506211554 21 0 0.0 0.0 0.00 0.00 0.00 57 1017.5
20260506210107 21 0 0.0 0.0 0.00 0.00 0.00 59 1017.4
20260506204553 21 0 0.0 0.0 0.00 0.00 0.00 59 1017.5
20260506203138 21 0 0.0 0.0 0.00 0.00 0.00 61 1017.6
20260506201552 21 0 0.0 0.0 0.00 0.00 0.00 61 1017.9
20260506200054 21 0 0.0 0.0 0.00 0.00 0.00 61 1017.8
20260506194554 20 0 0.0 0.0 0.00 0.00 0.00 61 1017.9
20260506193051 20 0 0.0 0.0 0.00 0.00 0.00 60 1018.0
20260506191554 20 0 0.0 0.0 0.00 0.00 0.00 59 1018.1
20260506190055 20 0 0.0 0.0 0.00 0.00 0.00 57 1018.2
20260506184600 20 0 0.0 0.0 0.00 0.00 0.00 57 1018.3
20260506183059 20 0 0.0 0.0 0.00 0.00 0.00 56 1018.5
20260506181556 19 0 0.0 0.0 0.00 0.00 0.00 59 1018.6
20260506180055 19 0 0.0 0.0 0.00 0.00 0.00 61 1018.7
20260506174606 18 0 0.0 0.0 0.00 0.00 0.00 61 1018.5
20260506173056 18 0 0.0 0.0 0.00 0.00 0.00 62 1018.4
20260506171611 17 0 0.0 0.0 0.00 0.00 0.00 63 1018.6
20260506170054 17 0 0.0 0.0 0.00 0.00 0.00 66 1018.5
20260506164558 17 0 0.0 0.0 0.00 0.00 0.00 69 1018.6
20260506163121 16 0 0.0 0.0 0.00 0.00 0.00 73 1018.5
20260506161553 15 0 0.0 0.0 0.00 0.00 0.00 79 1018.6
20260506160053 13 0 0.0 0.0 0.00 0.00 0.00 83 1018.4
20260506154555 13 0 0.0 0.0 0.00 0.00 0.00 85 1018.5
20260506153134 12 0 0.0 0.0 0.00 0.00 0.00 86 1018.5
20260506151555 11 0 0.0 0.0 0.00 0.00 0.00 87 1018.6
20260506150056 10 0 0.0 0.0 0.00 0.00 0.00 87 1018.6
20260506144551 10 0 0.0 0.0 0.00 0.00 0.00 87 1018.7
20260506143055 9 0 0.0 0.0 0.00 0.00 0.00 88 1018.5
20260506141554 8 0 0.0 0.0 0.00 0.00 0.00 88 1018.6
20260506140052 7 0 0.0 0.0 0.00 0.00 0.00 87 1018.5
20260506134555 6 0 0.0 0.0 0.00 0.00 0.00 87 1018.4
20260506133052 6 0 0.0 0.0 0.00 0.00 0.00 87 1018.4
20260506131607 6 0 0.0 0.0 0.00 0.00 0.00 87 1018.1
20260506130057 6 0 0.0 0.0 0.00 0.00 0.00 87 1018.1
20260506124556 6 0 0.0 0.0 0.00 0.00 0.00 87 1018.1
20260506123107 6 0 0.0 0.0 0.00 0.00 0.00 86 1017.9
20260506121611 7 0 0.0 0.0 0.00 0.00 0.00 86 1017.8
20260506120055 7 0 0.0 0.0 0.00 0.00 0.00 86 1017.8
20260506114552 7 0 0.0 0.0 0.00 0.00 0.00 86 1017.9
20260506113053 7 0 0.0 0.0 0.00 0.00 0.00 86 1017.9
20260506111555 7 0 0.0 0.0 0.00 0.00 0.00 86 1017.9
20260506104552 7 0 0.0 0.0 0.00 0.00 0.00 86 1017.6
20260506103051 7 0 0.0 0.0 0.00 0.00 0.00 86 1017.6
20260506101613 7 0 0.0 0.0 0.00 0.00 0.00 86 1017.6
20260506100051 7 0 0.0 0.0 0.00 0.00 0.00 86 1017.8
20260506094556 7 0 0.0 0.0 0.00 0.00 0.00 85 1017.8
20260506093059 8 0 0.0 0.0 0.00 0.00 0.00 85 1017.9
20260506091552 8 0 0.0 0.0 0.00 0.00 0.00 85 1017.9
20260506084611 8 0 0.0 0.0 0.00 0.00 0.00 84 1018.0
20260506083054 8 0 0.0 0.0 0.00 0.00 0.00 84 1018.2
20260506081552 8 0 0.0 0.0 0.00 0.00 0.00 84 1018.2
20260506073057 10 0 0.0 0.0 0.00 0.00 0.00 84 1018.1
20260506071557 10 0 0.0 0.0 0.00 0.00 0.00 83 1018.1
20260506061553 10 0 0.0 0.0 0.00 0.00 0.00 82 1017.5